This demonstration page uses our WeatherBlox Daily Observations layout. Learn more.

Left ArrowRight Arrow

34.16533, -84.80231

Hourly Observations for October 30, 2021

Temp ( °F °C ) Dew Point ( °F °C ) Humidity (%) Winds ( mph kmh ) Pressure ( in mb ) Visibility ( mi km ) Precip ( " mm )
12:15 am 00:15 Cloudy 52 11 50 10 94 94 N N/A 29.64 1004 10 16 N/A
12:35 am 00:35 Cloudy 52 11 50 10 94 94 N N/A 29.65 1004 10 16 N/A
12:55 am 00:55 Cloudy 52 11 50 10 94 94 N N/A 29.64 1004 10 16 N/A
1:15 am 01:15 Cloudy 52 11 50 10 94 94 N N/A 29.64 1004 10 16 N/A
1:35 am 01:35 Cloudy 52 11 50 10 94 94 N N/A 29.64 1004 10 16 N/A
1:55 am 01:55 Cloudy 52 11 50 10 94 94 N N/A 29.64 1004 10 16 N/A
2:15 am 02:15 Cloudy 52 11 50 10 94 94 N N/A 29.64 1004 10 16 N/A
2:35 am 02:35 Cloudy 52 11 50 10 94 94 N N/A 29.63 1003 10 16 N/A
2:55 am 02:55 Cloudy 52 11 50 10 94 94 N N/A 29.63 1003 10 16 N/A
3:15 am 03:15 Cloudy 52 11 50 10 94 94 N N/A 29.63 1003 10 16 N/A
3:35 am 03:35 Cloudy 52 11 50 10 94 94 N N/A 29.63 1003 9 14 N/A
3:55 am 03:55 Cloudy 52 11 50 10 94 94 N N/A 29.62 1003 10 16 N/A
4:15 am 04:15 Cloudy 52 11 50 10 94 94 N N/A 29.62 1003 10 16 N/A
4:35 am 04:35 Cloudy 52 11 52 11 100 100 N N/A 29.63 1003 10 16 N/A
4:55 am 04:55 Cloudy 52 11 52 11 100 100 N N/A 29.62 1003 10 16 N/A
5:15 am 05:15 Cloudy 52 11 52 11 100 100 N N/A 29.62 1003 10 16 N/A
5:35 am 05:35 Cloudy 52 11 52 11 100 100 W 5 7 29.63 1003 10 16 N/A
5:55 am 05:55 Cloudy 54 12 52 11 94 94 WSW 5 7 29.63 1004 10 16 N/A
6:15 am 06:15 Cloudy 54 12 52 11 94 94 N N/A 29.62 1003 10 16 N/A
6:35 am 06:35 Cloudy 54 12 52 11 94 94 VRB 3 6 29.63 1004 10 16 N/A
6:55 am 06:55 Cloudy 54 12 52 11 94 94 VRB 5 7 29.63 1004 10 16 N/A
7:15 am 07:15 Cloudy 54 12 52 11 94 94 VRB 5 7 29.63 1004 10 16 N/A
7:35 am 07:35 Cloudy 54 12 52 11 94 94 W 6 9 29.63 1004 10 16 N/A
7:55 am 07:55 Cloudy 54 12 52 11 94 94 VRB 6 9 29.64 1004 10 16 N/A
8:15 am 08:15 Cloudy 54 12 52 11 94 94 VRB 6 9 29.64 1004 10 16 N/A
8:35 am 08:35 Cloudy 54 12 52 11 94 94 WSW 5 7 29.65 1004 10 16 N/A
8:55 am 08:55 Cloudy 54 12 52 11 94 94 W 7 11 29.66 1005 10 16 N/A
9:15 am 09:15 Cloudy 55 13 52 11 88 88 WSW 8 13 29.66 1004 10 16 N/A
9:35 am 09:35 Cloudy 55 13 54 12 94 94 VRB 6 9 29.67 1005 10 16 N/A
9:55 am 09:55 Cloudy 55 13 52 11 88 88 W 6 9 29.68 1005 10 16 N/A
10:15 am 10:15 Cloudy 55 13 54 12 94 94 VRB 6 9 29.69 1005 10 16 N/A
10:35 am 10:35 Cloudy 55 13 52 11 88 88 WSW 6 9 29.69 1005 10 16 N/A
10:55 am 10:55 Cloudy 57 14 52 11 82 82 W 9 15 29.69 1005 10 16 N/A
11:15 am 11:15 Cloudy 57 14 52 11 82 82 WSW 9 15 29.69 1005 10 16 N/A
11:35 am 11:35 Cloudy 57 14 50 10 77 77 W 10 17 29.69 1005 10 16 N/A
11:55 am 11:55 Cloudy 57 14 50 10 77 77 W 9 15 29.69 1005 10 16 N/A
12:15 pm 12:15 Cloudy 57 14 50 10 77 77 WSW 8 13 29.69 1005 10 16 N/A
12:35 pm 12:35 Mostly Cloudy 57 14 52 11 82 82 VRB 7 11 29.69 1005 10 16 N/A
12:55 pm 12:55 Cloudy 57 14 52 11 82 82 VRB 7 11 29.69 1005 10 16 N/A
1:15 pm 13:15 Cloudy with Light Rain 57 14 52 11 82 82 W 10 17 29.68 1005 8 13 N/A
1:35 pm 13:35 Cloudy with Light Rain 55 13 52 11 88 88 W 12 19 29.68 1005 7 11 N/A
1:55 pm 13:55 Cloudy with Light Rain 55 13 50 10 82 82 W 10 17 29.69 1005 8 13 N/A
2:15 pm 14:15 Cloudy with Light Rain 55 13 50 10 82 82 W 9 15 29.68 1005 9 14 N/A
2:35 pm 14:35 Cloudy 55 13 52 11 88 88 W 8 13 29.68 1005 10 16 N/A
2:55 pm 14:55 Cloudy 55 13 50 10 82 82 W 12 19 29.68 1005 10 16 N/A
3:15 pm 15:15 Mostly Cloudy with Light Rain 55 13 52 11 88 88 WSW 10 17 29.68 1005 7 11 N/A
3:35 pm 15:35 Cloudy 55 13 50 10 82 82 WSW 8 13 29.68 1005 10 16 N/A
3:55 pm 15:55 Cloudy 55 13 50 10 82 82 W 12 19 29.69 1005 9 14 N/A
4:15 pm 16:15 Cloudy 55 13 52 11 88 88 W 7 11 29.69 1005 8 13 N/A
4:35 pm 16:35 Cloudy with Light Rain 54 12 52 11 94 94 W 6 9 29.70 1006 4 6 N/A
4:55 pm 16:55 Cloudy with Light Rain 55 13 52 11 88 88 W 10 17 29.71 1006 4 6 N/A
5:15 pm 17:15 Mostly Cloudy with Light Rain 54 12 52 11 94 94 W 8 13 29.71 1006 2 3 N/A
5:35 pm 17:35 Mostly Cloudy with Light Rain 54 12 52 11 94 94 W 10 17 29.72 1007 4 6 N/A
5:55 pm 17:55 Mostly Cloudy 54 12 52 11 94 94 W 13 20 29.72 1007 10 16 N/A
6:15 pm 18:15 Cloudy 54 12 52 11 94 94 W 12 19 29.73 1007 10 16 N/A
6:35 pm 18:35 Cloudy 54 12 52 11 94 94 W 10 17 29.74 1007 10 16 N/A
6:55 pm 18:55 Cloudy 54 12 52 11 94 94 W 10 17 29.74 1007 10 16 N/A
7:15 pm 19:15 Cloudy 54 12 52 11 94 94 WSW 6 9 29.74 1007 10 16 N/A
7:35 pm 19:35 Cloudy 54 12 52 11 94 94 VRB 5 7 29.76 1008 10 16 N/A
7:55 pm 19:55 Cloudy 54 12 52 11 94 94 WSW 5 7 29.76 1008 10 16 N/A
8:15 pm 20:15 Cloudy 54 12 52 11 94 94 W 8 13 29.77 1008 10 16 N/A
8:35 pm 20:35 Cloudy 54 12 52 11 94 94 W 8 13 29.77 1008 10 16 N/A
8:55 pm 20:55 Cloudy 54 12 52 11 94 94 W 8 13 29.78 1009 10 16 N/A
9:15 pm 21:15 Cloudy 54 12 52 11 94 94 W 7 11 29.79 1009 10 16 N/A
9:35 pm 21:35 Cloudy 54 12 52 11 94 94 W 8 13 29.79 1009 10 16 N/A
9:55 pm 21:55 Cloudy 54 12 52 11 94 94 W 7 11 29.80 1009 10 16 N/A
10:15 pm 22:15 Cloudy 54 12 52 11 94 94 W 7 11 29.81 1010 10 16 N/A
10:35 pm 22:35 Cloudy 54 12 52 11 94 94 W 8 13 29.81 1010 10 16 N/A
10:55 pm 22:55 Cloudy 54 12 52 11 94 94 WSW 7 11 29.82 1010 10 16 N/A
11:15 pm 23:15 Cloudy 54 12 52 11 94 94 W 6 9 29.82 1010 10 16 N/A
11:35 pm 23:35 Cloudy 54 12 52 11 94 94 W 8 13 29.82 1010 10 16 N/A
11:55 pm 23:55 Cloudy 54 12 52 11 94 94 W 6 9 29.83 1010 10 16 N/A

Powered by AerisWeather